Anoka County, MN

11:49 PM CST on February 20, 2018 (GMT -0600)
Anoka County / Blaine Airport

Weather History for KANE - January, 2013

Change the Weather History Date:

Saturday, January 12, 2013

  Actual Average Record
Temperature  
Mean Temperature 22 °F -  
Max Temperature 39 °F 20 °F 42 °F (2006)
Min Temperature 6 °F 5 °F -11 °F (1998)
Degree Days  
Heating Degree Days 42    
Moisture  
Dew Point 15 °F    
Average Humidity 80    
Maximum Humidity 100    
Minimum Humidity 67    
Precipitation  
Precipitation 0.00 in - - ()
Sea Level Pressure  
Sea Level Pressure 29.73 in    
Wind  
Wind Speed 14 mph (WSW)    
Max Wind Speed 25 mph    
Max Gust Speed 31 mph    
Visibility 10 miles    
Events Snow    
Averages and records for this station are not official NWS values.
T = Trace of Precipitation, MM = Missing Value Source: NWS Daily Summary

Daily Weather History Graph

Daily Weather History Graph

Search for Another Location

Airport or City:

Trip Planner

Search our weather history database for the weather conditions in past years. The results will help you decide how hot, cold, wet, or windy it might be!

Date:

Astronomy

Jan. 12, 2013 Rise Set
Actual Time 7:49 AM CST 4:53 PM CST
Civil Twilight 7:16 AM CST 5:26 PM CST
Nautical Twilight 6:39 AM CST 6:03 PM CST
Astronomical Twilight 6:04 AM CST 6:38 PM CST
Moon 8:03 AM CST (1/12) 6:29 PM CST (1/12)
Length of Visible Light 10h 10m
Length of Day
9h 04m
New Moon, 1% of the Moon is Illuminated
Jan 12
New Moon
Jan 18
First Quarter
Jan 26
Full
Feb 3
Last Quarter
Feb 10
New

Hourly Weather History & Observations

Time (CST) Temp. Windchill Dew Point Humidity Pressure Visibility Wind Dir Wind Speed Gust Speed Precip Events Conditions
12:14 AM 39.2 °F 32.0 °F 39.2 °F 100% 29.36 in 10.0 mi SW 11.5 mph 18.4 mph N/A   Overcast
12:34 AM 39.2 °F 31.6 °F 37.4 °F 93% 29.37 in 10.0 mi WSW 12.7 mph 18.4 mph N/A   Overcast
12:54 AM 39.2 °F 33.6 °F 37.4 °F 93% 29.37 in 10.0 mi SSW 8.1 mph - N/A   Overcast
1:14 AM 39.2 °F 33.0 °F 37.4 °F 93% 29.38 in 10.0 mi SSW 9.2 mph - N/A   Overcast
1:35 AM 37.4 °F 28.9 °F 37.4 °F 100% 29.40 in 10.0 mi SW 13.8 mph 23.0 mph N/A   Overcast
1:54 AM 37.4 °F 27.8 °F 35.6 °F 93% 29.41 in 10.0 mi SW 17.3 mph 26.5 mph N/A   Overcast
2:14 AM 37.4 °F 29.3 °F 35.6 °F 93% 29.42 in 10.0 mi SW 12.7 mph 23.0 mph N/A   Overcast
2:35 AM 35.6 °F 25.5 °F 32.0 °F 87% 29.44 in 10.0 mi WSW 17.3 mph 24.2 mph N/A   Overcast
2:54 AM 32.0 °F 22.1 °F 30.2 °F 93% 29.46 in 10.0 mi SW 13.8 mph 21.9 mph N/A   Overcast
3:14 AM 28.4 °F 15.4 °F 26.6 °F 93% 29.48 in 5.0 mi SW 19.6 mph 26.5 mph N/A Snow Light Snow
3:34 AM 26.6 °F 13.1 °F 23.0 °F 86% 29.50 in 5.0 mi WSW 19.6 mph 27.6 mph N/A Snow Light Snow
3:54 AM 24.8 °F 10.7 °F 19.4 °F 80% 29.51 in 10.0 mi SW 19.6 mph 31.1 mph N/A   Overcast
4:14 AM 24.8 °F 9.0 °F 19.4 °F 80% 29.54 in 10.0 mi SW 25.3 mph 29.9 mph N/A   Overcast
4:34 AM 23.0 °F 8.7 °F 17.6 °F 80% 29.55 in 10.0 mi WSW 18.4 mph 29.9 mph N/A   Overcast
4:54 AM 21.2 °F 6.4 °F 15.8 °F 80% 29.57 in 10.0 mi WSW 18.4 mph 28.8 mph N/A   Overcast
5:14 AM 21.2 °F 5.6 °F 15.8 °F 80% 29.59 in 10.0 mi WSW 20.7 mph 26.5 mph N/A   Overcast
5:34 AM 21.2 °F 7.3 °F 15.8 °F 80% 29.60 in 10.0 mi WSW 16.1 mph 26.5 mph N/A   Overcast
5:54 AM 19.4 °F 4.1 °F 15.8 °F 86% 29.62 in 7.0 mi WSW 18.4 mph 21.9 mph N/A   Overcast
6:14 AM 19.4 °F 4.5 °F 15.8 °F 86% 29.65 in 7.0 mi SW 17.3 mph 23.0 mph N/A Snow Light Snow
6:34 AM 19.4 °F 4.1 °F 14.0 °F 80% 29.67 in 10.0 mi WSW 18.4 mph 27.6 mph N/A   Overcast
6:45 AM 19.4 °F 5.0 °F 12.2 °F 74% 29.67 in 7.0 mi WSW 16.1 mph 27.6 mph N/A   Overcast
6:54 AM 19.4 °F 4.1 °F 12.2 °F 74% 29.68 in 7.0 mi WSW 18.4 mph 24.2 mph N/A Snow Light Snow
7:45 AM 17.6 °F 1.7 °F 10.4 °F 73% 29.73 in 10.0 mi WSW 18.4 mph 27.6 mph N/A   Overcast
8:45 AM 17.6 °F 3.2 °F 10.4 °F 73% 29.77 in 10.0 mi WSW 15.0 mph 20.7 mph N/A   Overcast
9:45 AM 15.8 °F -0.2 °F 8.6 °F 73% 29.82 in 10.0 mi SW 17.3 mph 21.9 mph N/A   Overcast
10:50 AM 15.8 °F -0.2 °F 6.8 °F 68% 29.85 in 10.0 mi SW 17.3 mph 21.9 mph N/A   Mostly Cloudy
11:50 AM 15.8 °F 0.3 °F 6.8 °F 68% 29.87 in 10.0 mi SW 16.1 mph 21.9 mph N/A   Mostly Cloudy
12:50 PM 15.8 °F 0.3 °F 6.8 °F 68% 29.88 in 10.0 mi WSW 16.1 mph 24.2 mph N/A   Overcast
1:45 PM 15.8 °F 0.9 °F - N/A% 29.92 in 10.0 mi WSW 15.0 mph 20.7 mph N/A   Overcast
2:50 PM 14.0 °F -2.5 °F 5.0 °F 67% 29.95 in 10.0 mi WSW 17.3 mph - N/A   Overcast
3:50 PM 12.2 °F -4.8 °F 3.2 °F 67% 29.95 in 10.0 mi West 17.3 mph - N/A   Overcast
4:45 PM 12.2 °F -1.8 °F 3.2 °F 67% 29.97 in 10.0 mi West 11.5 mph 17.3 mph N/A   Overcast
5:45 PM 10.4 °F -2.4 °F 3.2 °F 73% 30.01 in 10.0 mi West 9.2 mph - N/A   Overcast
7:50 PM 8.6 °F -6.3 °F 1.4 °F 73% 30.02 in 10.0 mi West 11.5 mph 17.3 mph N/A   Partly Cloudy
8:45 PM 8.6 °F -6.3 °F 1.4 °F 73% 30.04 in 10.0 mi West 11.5 mph - N/A   Partly Cloudy
9:13 PM 8.6 °F -3.7 °F 1.4 °F 73% 30.06 in 10.0 mi West 8.1 mph - N/A   Scattered Clouds
9:34 PM 8.6 °F -4.7 °F 1.4 °F 73% 30.04 in 10.0 mi West 9.2 mph - N/A   Scattered Clouds
9:54 PM 6.8 °F -5.9 °F 1.4 °F 79% 30.04 in 10.0 mi West 8.1 mph - N/A   Clear
10:14 PM 6.8 °F -6.9 °F 1.4 °F 79% 30.04 in 10.0 mi West 9.2 mph - N/A   Clear
10:34 PM 6.8 °F -4.8 °F 1.4 °F 79% 30.05 in 10.0 mi West 6.9 mph - N/A   Clear
11:14 PM 6.8 °F -4.8 °F 1.4 °F 79% 30.05 in 10.0 mi West 6.9 mph - N/A   Clear
11:34 PM 6.8 °F -6.9 °F -0.4 °F 72% 30.04 in 10.0 mi WNW 9.2 mph - N/A   Clear
11:53 PM 6.8 °F -4.8 °F -0.4 °F 72% 30.04 in 10.0 mi WNW 6.9 mph - N/A   Clear